Regional Weather Roundup
Issued by NWS Upton, NY

Current Version | Previous Version | Text Only | Print | Product List | Glossary On
Versions: 1 2 3 4 5 6 7 8 9 10 11 12 13 14 15 16 17 18 19 20 21 22 23 24 25 26 27 28 29 30 31 32 33 34 35 36 37 38 39 40 41 42 43 44 45 46 47 48 49 50
000 ASUS41 KOKX 282105 RWROKX REGIONAL WEATHER ROUNDUP NATIONAL WEATHER SERVICE NEW YORK NY 400 PM EST WED JAN 28 2015 NOTE: "FAIR" INDICATES FEW OR NO CLOUDS BELOW 12,000 FEET WITH NO SIGNIFICANT WEATHER AND/OR OBSTRUCTIONS TO VISIBILITY. NYZ071-072-176-178-NJZ106-104-282200- NEW YORK CITY METRO AREA CITY SKY/WX TMP DP RH WIND PRES REMARKS CENTRAL PARK SUNNY 33 7 33 NW10G17 30.11R WCI 25 LAGUARDIA APRT SUNNY 33 11 39 NW8 30.10R WCI 26 KENNEDY INTL SUNNY 33 10 38 NW15 30.11R WCI 23 NEWARK/LIBERTY SUNNY 32 6 33 NW18G26 30.11R WCI 20 BRNX BOT. GARD N/A N/A N/A N/A NW8 30.11R TETERBORO SUNNY 33 7 33 NW10 30.10R WCI 25 $$ NYZ177-179-078>081-282200- LONG ISLAND NEW YORK CITY SKY/WX TMP DP RH WIND PRES REMARKS FARMINGDALE SUNNY 31 10 41 N17G23 30.08R WCI 19 ISLIP PTCLDY 29 11 47 N20G26 30.05R WCI 16 SHIRLEY CLEAR 28 11 48 NW14G24 30.07R WCI 17 WESTHAMPTON CLEAR 27 11 51 NW13 30.07R WCI 16 MONTAUK POINT N/A 27 11 51 NW12 30.05R WCI 17 $$ NYZ052-065-067-282200- HUDSON VALLEY CITY SKY/WX TMP DP RH WIND PRES REMARKS WHITE PLAINS SUNNY 29 8 41 N14G24 30.07R WCI 18 NEWBURGH SUNNY 30 9 40 N9 30.10R WCI 22 MONTGOMERY SUNNY 30 7 37 E5 30.09 WCI 25 POUGHKEEPSIE CLEAR 30 7 37 NW7 30.12R WCI 23 ALBANY PTCLDY 23 0 36 N8 30.16R WCI 14 $$ NJZ001-105-106-008-010-013-015-019>022-104-282200- NEW JERSEY CITY SKY/WX TMP DP RH WIND PRES REMARKS NEWARK/LIBERTY SUNNY 32 6 33 NW18G26 30.11R WCI 20 TETERBORO SUNNY 33 7 33 NW10 30.10R WCI 25 CALDWELL SUNNY 33 3 28 VRB6 30.12R WCI 28 MORRISTOWN SUNNY 34 3 27 N9G18 30.12R WCI 26 SOMERVILLE SUNNY 34 5 29 N14G23 30.11 WCI 25 SUSSEX SUNNY 31 3 30 VRB6 30.10R WCI 25 ANDOVER N/A 30 2 30 N12G21 30.10R WCI 20 TRENTON SUNNY 32 5 32 N9 30.12R WCI 24 MILLVILLE SUNNY 34 3 27 NW13G22 30.15R WCI 25 ATLANTIC CITY SUNNY 33 8 35 NW18 30.12R WCI 22 WRIGHTSTOWN SUNNY 32 9 37 NW12 30.10R WCI 23 TOMS RIVER SUNNY 30 10 43 NW14 30.11R WCI 20 BELMAR SUNNY 32 9 37 NW16 30.10R WCI 21 $$ PAZ047>061-062-071-282200- EASTERN PENNSYLVANIA CITY SKY/WX TMP DP RH WIND PRES REMARKS PHILADELPHIA SUNNY 34 2 25 NW14 30.17R WCI 25 ALLENTOWN SUNNY 31 4 31 NW16G23 30.14R WCI 20 SCRANTON SUNNY 29 2 31 N10G18 30.14R WCI 20 $$ CTZ002-004>006-009-010-012-RIZ004-006-007-MAZ004-011-015-282200- SOUTHERN NEW ENGLAND IN CT CITY SKY/WX TMP DP RH WIND PRES REMARKS BRADLEY INTL PTCLDY 28 8 43 N16 30.05R WCI 16 HARTFORD CLEAR 27 9 46 N5 30.07R WCI 22 DANBURY CLEAR 28 5 37 N9 30.09R WCI 19 WTRBRY/OXFORD NOT AVBL BRIDGEPORT CLEAR 29 10 45 NW16G24 30.08R WCI 17 MERIDEN CLEAR 28 9 44 NW13G24 30.06R WCI 17 NEW HAVEN CLEAR 29 10 45 N13G21 30.06R WCI 19 CHESTER FAIR 28 10 47 N10 30.03R WCI 19 GROTON CLEAR 25 10 53 N12 30.04R WCI 14 WILLIMANTIC CLEAR 26 8 46 N12 30.05R WCI 16 IN RI CITY SKY/WX TMP DP RH WIND PRES REMARKS PROVIDENCE PTCLDY 25 8 48 NW10 30.02R WCI 15 BLOCK ISLAND CLEAR 25 9 50 NW6 30.01R WCI 18 WESTERLY CLEAR 26 8 46 N9 30.04R WCI 17 IN MA CITY SKY/WX TMP DP RH WIND PRES REMARKS BOSTON PTCLDY 24 9 52 NW12 30.02R WCI 13 WORCESTER CLEAR 21 7 54 NW13 29.97R WCI 9 WESTFIELD CLEAR 26 7 44 NW18 30.06R WCI 13 PROVINCETOWN CLOUDY 25 12 58 NW18 30.00R WCI 11 NANTUCKET CLOUDY 24 16 71 N12 30.00R WCI 13 $$ ANZ330-335-338-340-345-350-353-355-282200- COASTAL MARINE OBSERVATIONS STATION/POSITION TIME SKY/WX TEMP WIND PRES VSBY WAVE AIR SEA DIR/SP/G HT/PER (UTC) (F) (DEG/KT/KT) (MB) (MI) (FT/S) NY HARB ENTRANCE 2100 33 40 320/ 17/ 19 1018.5 3/12 4S FIRE IS NOT AVBL 20S FIRE ISLAND 2000 42 1017.6 4/12 23SW MTP 2100 N/A 4/11 HUDSON CANYON NOT AVBL EXECUTION ROCKS 2100 33 34 320/ 16/ 21 N/A WESTERN LI SOUND 2100 32 340/ 17/ 21 N/A 1/ 2 CENTRAL LI SOUND 2000 27 35 340/ 16/ 17 N/A 2/ 4 EASTERN LI SOUND NOT AVBL ROBBINS REEF 2100 33 340/ 17/ 23 1018.2 $$ >>>>>>>>>>>>>>>>>>>>>>>>>>>> KEY <<<<<<<<<<<<<<<<<<<<<<<<<<< > < > SKY/WX - SKY CONDITION/PRESENT WEATHER < > TMP - TEMPERATURE IN FAHRENHEIT < > DP - DEWPOINT IN FAHRENHEIT < > RH - RELATIVE HUMIDITY IN PERCENT < > WIND - DIRECTION AND SPEED IN MPH < > PRES - MEAN SEA LEVEL PRESSURE IN INCHES OF HG < > WCI - WIND CHILL INDEX < > VSB - VISIBILITY IN MILES < > HX - HEAT INDEX < > TC - TEMPERATURE IN CELSIUS < > VRB - VARIABLE WIND DIRECTION < > < >>>>>>>>>>>>>>>>>>>>>>>>>>>> KEY <<<<<<<<<<<<<<<<<<<<<<<<<<<

USA.gov is the U.S. government's official web portal to all federal, state and local government web resources and services.